www.pogodaiklimat.ru

Погода и климат >> Архив погоды >> Япония >> Уракава


ПОГОДА в Уракава

  • Прогноз погоды в Уракава
  • Монитор погоды в Уракава

АРХИВ ПОГОДЫ в Уракава

Время (UTC), дата Ветер
(напр.,м/с)
 
Видим.   Явления Облачность Т
(С)
Тd
(С)
f
(%)
Тe
(С)
Тes
(С)
Комфортность P
(гПа)
Po
(гПа)
Тmin
(С)
Tmax
(С)
R
(мм)
R24
(мм)
S
(см)
01 11.09 В 3 20 км н/о +20.9 +15.0 69 +24 +24 комфорт 1014.6 1010.1
02 11.09 В 5 20 км н/о +21.0 +15.1 69 +24 +24 комфорт 1013.7 1009.2
03 11.09 В 4 20 км слаб. дождь н/о +19.2 +16.1 82 +21 +21 комфорт 1013.3 1008.8
04 11.09 СВ 3 18 км слаб. дождь н/о +18.4 +16.2 87 +19 +19 1012.3 1007.8
05 11.09 СВ 2 4500 м дождь н/о +17.2 +16.7 97 +18 +18 1011.2 1006.7
06 11.09 СВ 4 4800 м дождь н/о +16.6 +16.3 98 +16 +16 1010.4 1005.9 9
07 11.09 С 3 3100 м дождь н/о +16.3 +16.0 98 +16 +16 1010.4 1005.8
08 11.09 СЗ 4 8000 м слаб. дождь н/о +15.6 +15.5 99 +15 +15 1009.9 1005.3
09 11.09 СЗ 3 8000 м слаб. дождь н/о +15.1 +15.0 99 +14 +14 1010.2 1005.6
10 11.09 В 3 20 км слаб. дождь н/о +15.0 +14.9 99 +14 +14 1009.0 1004.4
11 11.09 СЗ 3 20 км в посл. час дождь н/о +15.2 +14.4 95 +14 +14 1009.7 1005.1
12 11.09 С 4 20 км {дождь} н/о +15.4 +14.8 96 +14 +14 1009.6 1005.0 +21.3 33
13 11.09 С 4 20 км н/о +15.8 +14.5 92 +15 +15 1009.9 1005.3
14 11.09 СВ 2 20 км в посл. час дождь н/о +15.4 +14.8 96 +15 +15 1009.6 1005.0
15 11.09 СВ 2 20 км {дождь} н/о +15.1 +14.5 96 +15 +15 1009.5 1004.9
16 11.09 СВ 3 20 км н/о +15.0 +14.5 97 +14 +14 1009.4 1004.8
17 11.09 С 3 20 км н/о +14.8 +14.5 98 +14 +14 1009.5 1004.9
18 11.09 С 3 20 км {дождь} н/о +14.3 +14.0 98 +13 +13 1009.5 1004.9 0.0
19 11.09 СЗ 2 20 км н/о +14.8 +13.9 94 +14 +14 1010.0 1005.4
20 11.09 СВ 3 20 км н/о +13.5 +13.2 98 +12 +12 1010.7 1006.1
21 11.09 СВ 3 20 км н/о +15.1 +14.3 95 +14 +14 1011.0 1006.4
23 11.09 С 2 20 км н/о +17.3 +14.8 85 +18 +18 1011.7 1007.2
00 12.09 З 2 20 км н/о +18.1 +15.9 87 +19 +19 1011.8 1007.3 +13.5 0.0
01 12.09 З 3 20 км н/о +19.4 +14.7 74 +21 +21 комфорт 1011.8 1007.3
02 12.09 ЮЗ 2 20 км н/о +20.5 +15.1 71 +24 +24 комфорт 1011.8 1007.3
03 12.09 ЮЗ 4 20 км н/о +21.8 +15.4 67 +25 +25 комфорт 1011.6 1007.1
04 12.09 З 9 20 км н/о +21.1 +14.8 67 +24 +24 комфорт 1011.3 1006.8
05 12.09 З 7 20 км н/о +21.5 +14.9 66 +25 +25 комфорт 1011.1 1006.6
06 12.09 В 5 20 км н/о +20.3 +15.3 73 +23 +23 комфорт 1012.0 1007.5
07 12.09 ЮВ 7 20 км н/о +18.8 +15.3 80 +19 +19 1012.7 1008.2
08 12.09 ЮВ 6 20 км н/о +18.5 +14.8 79 +19 +19 1013.4 1008.9
09 12.09 ЮВ 5 20 км н/о +18.5 +14.8 79 +19 +19 1013.9 1009.4
10 12.09 ЮВ 6 20 км н/о +18.1 +14.2 78 +18 +18 1014.8 1010.3
11 12.09 В 4 20 км н/о +17.3 +14.2 82 +17 +17 1015.3 1010.7
12 12.09 В 4 20 км н/о +15.3 +13.9 91 +14 +14 1015.8 1011.2 +22.5
13 12.09 СВ 4 20 км н/о +14.8 +13.5 92 +14 +14 1016.0 1011.4
15 12.09 СВ 4 20 км н/о +14.3 +13.4 94 +13 +13 1016.4 1011.8
16 12.09 СВ 4 20 км н/о +14.3 +13.4 94 +13 +13 1016.4 1011.8
18 12.09 СВ 4 20 км н/о +13.5 +12.7 95 +12 +12 1016.5 1011.9
19 12.09 С 3 20 км н/о +13.8 +12.7 93 +13 +13 1017.0 1012.4
20 12.09 СВ 4 20 км н/о +13.8 +12.9 94 +12 +12 1017.2 1012.6
21 12.09 СВ 3 20 км н/о +14.0 +13.1 94 +13 +13 1017.8 1013.2
22 12.09 СВ 3 20 км н/о +16.9 +14.0 83 +17 +17 1018.0 1013.4
23 12.09 В 4 20 км н/о +18.8 +13.4 71 +20 +20 1018.4 1013.9
00 13.09 В 3 20 км н/о +20.4 +13.4 64 +23 +23 комфорт 1018.7 1014.2 +13.3
01 13.09 ЮВ 4 20 км н/о +20.4 +14.3 68 +23 +23 комфорт 1018.8 1014.3
02 13.09 Ю 3 20 км н/о +20.9 +13.6 63 +24 +24 комфорт 1018.9 1014.4
03 13.09 Ю 4 20 км н/о +21.7 +15.1 66 +25 +25 комфорт 1018.9 1014.4
04 13.09 Ю 4 20 км н/о +20.5 +13.0 62 +23 +23 комфорт 1018.9 1014.4
05 13.09 ЮВ 5 20 км н/о +19.6 +13.1 66 +21 +21 комфорт 1018.7 1014.2
06 13.09 ЮВ 6 20 км н/о +19.1 +13.9 72 +20 +20 1018.8 1014.3
07 13.09 ЮВ 6 20 км н/о +18.4 +13.3 72 +18 +18 1018.8 1014.2
08 13.09 ЮВ 6 20 км н/о +17.6 +12.5 72 +17 +17 1019.2 1014.6
09 13.09 В 5 20 км н/о +16.2 +11.8 75 +15 +15 1019.3 1014.7
10 13.09 В 3 20 км н/о +14.6 +12.1 85 +14 +14 1020.5 1015.9
11 13.09 СВ 4 20 км н/о +13.5 +12.2 92 +12 +12 1020.8 1016.2
12 13.09 СВ 4 20 км н/о +13.0 +11.7 92 +11 +11 1020.4 1015.7 +22.4
13 13.09 СВ 4 20 км н/о +13.6 +12.0 90 +12 +12 1019.7 1015.1
14 13.09 СВ 4 20 км н/о +13.5 +12.2 92 +12 +12 1019.5 1014.9
15 13.09 СВ 4 20 км н/о +13.4 +11.6 89 +12 +12 1019.2 1014.6
16 13.09 СВ 4 20 км н/о +14.1 +11.1 82 +13 +13 1018.9 1014.3
17 13.09 СВ 6 20 км н/о +14.0 +10.2 78 +12 +12 1017.9 1013.3
18 13.09 СВ 5 20 км н/о +13.6 +9.9 78 +12 +12 1017.8 1013.2
19 13.09 СВ 6 20 км н/о +14.4 +9.6 73 +13 +13 1017.3 1012.7
21 13.09 В 6 20 км н/о +16.0 +12.0 77 +15 +15 1017.3 1012.7
23 13.09 В 4 20 км н/о +19.1 +15.4 79 +20 +20 1016.8 1012.3
00 14.09 В 4 20 км слаб. дождь н/о +18.8 +15.9 83 +20 +20 1016.5 1012.0 +12.9 0.0
01 14.09 ЮВ 5 20 км в посл. час дождь н/о +21.4 +16.8 75 +25 +25 комфорт 1015.8 1011.3
02 14.09 ЮВ 5 20 км н/о +21.9 +17.1 74 +26 +26 душно 1015.3 1010.8
03 14.09 ЮВ 4 20 км {дождь} н/о +20.7 +16.9 79 +24 +24 комфорт 1015.6 1011.1
04 14.09 Ю 6 13 км слаб. дождь н/о +20.2 +17.6 85 +23 +23 комфорт 1014.0 1009.5
05 14.09 Ю 6 17 км в посл. час дождь н/о +21.8 +17.8 78 +26 +26 душно 1013.8 1009.3
06 14.09 Ю 6 13 км {дождь} н/о +21.3 +18.3 83 +26 +26 душно 1013.4 1008.9 0.0
07 14.09 Ю 6 12 км н/о +21.0 +18.4 85 +25 +25 комфорт 1013.3 1008.8
08 14.09 Ю 5 11 км н/о +20.9 +18.7 87 +25 +25 комфорт 1013.1 1008.6
09 14.09 Ю 5 10 км н/о +20.5 +18.6 89 +24 +24 комфорт 1012.9 1008.4
10 14.09 Ю 5 9000 м дымка н/о +20.5 +19.0 91 +24 +24 комфорт 1013.2 1008.7
11 14.09 ЮЗ 4 7000 м дымка н/о +20.6 +19.1 91 +25 +25 комфорт 1013.2 1008.7
12 14.09 ЮЗ 4 8000 м дымка н/о +20.6 +19.3 92 +25 +25 комфорт 1012.9 1008.4 +23.1 0.0
13 14.09 ЮЗ 4 6000 м дымка н/о +20.4 +19.4 94 +25 +25 комфорт 1012.6 1008.1
14 14.09 Ю 3 6000 м дымка н/о +20.3 +19.7 96 +25 +25 комфорт 1012.3 1007.8
15 14.09 Ю 1 9000 м дымка н/о +20.7 +19.9 95 +27 +27 душно 1012.2 1007.7
16 14.09 СВ 3 9000 м дымка н/о +20.0 +19.7 98 +24 +24 комфорт 1012.1 1007.6
17 14.09 СВ 4 9000 м дымка н/о +19.5 +19.2 98 +22 +22 комфорт 1011.6 1007.1
18 14.09 СВ 5 17 км н/о +19.4 +18.2 93 +21 +21 комфорт 1010.8 1006.3
19 14.09 СВ 4 15 км н/о +19.6 +18.6 94 +22 +22 комфорт 1011.2 1006.7
20 14.09 СВ 4 17 км н/о +19.3 +18.0 92 +21 +21 комфорт 1010.9 1006.4
21 14.09 В 4 13 км н/о +19.7 +18.7 94 +23 +23 комфорт 1011.1 1006.6
22 14.09 СВ 2 15 км слаб. дождь н/о +20.3 +19.1 93 +25 +25 комфорт 1011.1 1006.6
23 14.09 В 3 15 км в посл. час дождь н/о +21.4 +19.9 91 +26 +26 душно 1011.2 1006.7
00 15.09 ЮВ 2 9000 м дымка {дождь} н/о +22.5 +20.4 88 +29 +29 очень
душно
1011.7 1007.2 +19.3 0.0
01 15.09 ЮВ 4 9000 м дымка н/о +22.5 +20.8 90 +29 +29 очень
душно
1011.4 1007.0
02 15.09 ЮВ 3 11 км в посл. час дождь н/о +23.3 +20.6 85 +31 +31 очень
душно
1011.5 1007.1
03 15.09 ЮВ 4 10 км {дождь} н/о +22.8 +20.9 89 +30 +30 очень
душно
1011.2 1006.8
04 15.09 ЮВ 4 14 км н/о +23.3 +20.8 86 +31 +31 очень
душно
1011.1 1006.7
05 15.09 ЮВ 3 18 км н/о +22.9 +20.4 86 +30 +30 очень
душно
1011.0 1006.6
06 15.09 ЮВ 5 13 км {дождь} н/о +22.0 +20.5 91 +28 +28 душно 1011.4 1006.9 0.0
07 15.09 ЮВ 6 11 км н/о +21.5 +20.0 91 +27 +27 душно 1011.5 1007.0
08 15.09 В 3 20 км н/о +21.3 +19.4 89 +26 +26 душно 1011.8 1007.3
09 15.09 В 2 18 км н/о +20.8 +19.3 91 +26 +26 душно 1011.9 1007.4
10 15.09 В 3 11 км н/о +20.3 +19.3 94 +24 +24 комфорт 1012.4 1007.9
11 15.09 СВ 3 20 км н/о +20.0 +19.0 94 +24 +24 комфорт 1012.6 1008.1
12 15.09 СВ 4 20 км н/о +20.1 +18.4 90 +24 +24 комфорт 1012.4 1007.9 +24.6 0.0
13 15.09 В 2 20 км н/о +19.6 +18.4 93 +23 +23 комфорт 1012.5 1008.0
14 15.09 СВ 3 20 км н/о +19.8 +17.9 89 +23 +23 комфорт 1012.4 1007.9
15 15.09 СВ 4 20 км н/о +20.3 +17.5 84 +24 +24 комфорт 1012.0 1007.5
16 15.09 СВ 4 20 км н/о +19.8 +17.4 86 +23 +23 комфорт 1011.5 1007.0
17 15.09 СВ 5 20 км н/о +20.2 +16.8 81 +23 +23 комфорт 1010.8 1006.3
18 15.09 В 5 20 км н/о +20.3 +16.6 79 +23 +23 комфорт 1010.6 1006.1
19 15.09 СВ 5 20 км н/о +19.4 +16.5 83 +21 +21 комфорт 1010.2 1005.7
21 15.09 СВ 4 20 км н/о +19.8 +17.0 84 +22 +22 комфорт 1010.2 1005.7
22 15.09 СВ 5 20 км н/о +20.9 +17.5 81 +25 +25 комфорт 1009.4 1004.9
23 15.09 СВ 4 20 км н/о +21.7 +18.1 80 +26 +26 душно 1009.3 1004.8
00 16.09 ЮВ 3 16 км н/о +22.1 +19.1 83 +28 +28 душно 1009.2 1004.8 +19.1
01 16.09 ЮЗ 2 18 км н/о +23.0 +19.6 81 +30 +30 очень
душно
1008.5 1004.1
02 16.09 ЮВ 4 16 км н/о +22.8 +19.6 82 +29 +29 очень
душно
1007.4 1003.0
03 16.09 ЮВ 4 19 км н/о +23.8 +19.3 76 +29 +29 душно 1006.5 1002.1
04 16.09 Ю 3 20 км н/о +24.7 +20.0 75 +30 +30 очень
душно
1005.8 1001.4
05 16.09 Ю 2 20 км н/о +23.7 +20.1 80 +29 +29 душно 1004.9 1000.5
06 16.09 ЮЗ 2 16 км н/о +23.7 +19.4 77 +29 +29 душно 1004.3 999.9
07 16.09 З 4 20 км н/о +22.4 +19.8 85 +28 +28 душно 1003.9 999.5
08 16.09 З 3 11 км н/о +22.0 +19.8 87 +28 +28 душно 1003.6 999.2
09 16.09 З 3 9000 м дымка н/о +21.2 +19.7 91 +26 +26 душно 1003.2 998.8
10 16.09 СЗ 3 20 км н/о +20.8 +19.6 93 +26 +26 душно 1003.2 998.8
11 16.09 СЗ 2 20 км н/о +20.5 +19.7 95 +25 +25 комфорт 1002.9 998.5
12 16.09 СЗ 2 18 км н/о +20.4 +19.6 95 +25 +25 комфорт 1002.7 998.3 +25.6
13 16.09 С 1 20 км н/о +19.9 +19.3 96 +24 +24 комфорт 1002.8 998.3
14 16.09 СЗ 1 20 км н/о +19.8 +19.2 96 +24 +24 комфорт 1002.7 998.2
15 16.09 С 2 18 км н/о +19.0 +18.7 98 +21 +21 комфорт 1002.7 998.2
16 16.09 СЗ 1 20 км н/о +18.7 +18.5 99 +21 +21 комфорт 1002.3 997.8
17 16.09 С 1 20 км н/о +18.5 +18.2 98 +20 +20 1002.8 998.3
18 16.09 СВ 2 20 км н/о +17.8 +17.5 98 +18 +18 1003.1 998.6
19 16.09 СВ 2 15 км н/о +17.9 +17.7 99 +18 +18 1003.7 999.2
20 16.09 С 2 11 км н/о +18.5 +18.3 99 +20 +20 1004.8 1000.3
21 16.09 СВ 3 18 км н/о +18.9 +18.6 98 +21 +21 комфорт 1005.6 1001.1
22 16.09 СЗ 3 16 км н/о +19.7 +18.5 93 +23 +23 комфорт 1006.5 1002.0
23 16.09 З 2 18 км н/о +21.0 +18.0 83 +26 +26 душно 1007.1 1002.6
00 17.09 З 5 17 км н/о +21.5 +17.7 79 +26 +26 душно 1007.4 1003.0 +17.7
01 17.09 З 8 19 км н/о +21.2 +17.2 78 +25 +25 комфорт 1007.4 1002.9
02 17.09 З 7 20 км н/о +21.7 +16.4 72 +26 +26 душно 1007.4 1003.0
03 17.09 З 7 17 км н/о +22.4 +15.8 66 +26 +26 жарко 1007.6 1003.2
04 17.09 З 7 20 км н/о +24.0 +14.4 55 +27 +27 жарко 1007.9 1003.5
05 17.09 З 7 20 км н/о +24.9 +12.2 45 +27 +27 жарко 1008.1 1003.7
06 17.09 СЗ 6 20 км н/о +24.7 +11.3 43 +26 +26 жарко 1009.0 1004.6
07 17.09 З 5 20 км н/о +23.7 +12.7 50 +26 +26 жарко 1009.8 1005.4
08 17.09 В 3 16 км н/о +21.2 +15.1 68 +24 +24 комфорт 1011.0 1006.5
09 17.09 В 2 20 км н/о +19.4 +16.1 81 +22 +22 комфорт 1011.6 1007.1
10 17.09 В 3 17 км н/о +17.7 +16.2 91 +18 +18 1012.1 1007.6
11 17.09 СВ 3 18 км н/о +17.2 +16.2 94 +17 +17 1012.8 1008.3
12 17.09 С 3 17 км н/о +16.9 +15.8 93 +17 +17 1013.0 1008.4 +25.2
13 17.09 С 4 20 км н/о +17.7 +14.2 80 +18 +18 1013.2 1008.7
14 17.09 СВ 3 20 км н/о +16.2 +14.6 90 +16 +16 1013.3 1008.7
15 17.09 СВ 4 20 км н/о +16.1 +15.0 93 +15 +15 1013.3 1008.7
16 17.09 СВ 3 20 км н/о +16.0 +14.5 91 +16 +16 1013.2 1008.6
17 17.09 СВ 3 20 км н/о +15.4 +14.1 92 +15 +15 1012.7 1008.1
18 17.09 СВ 4 20 км н/о +15.3 +14.2 93 +14 +14 1012.8 1008.2
19 17.09 СВ 3 20 км н/о +15.8 +14.5 92 +15 +15 1012.8 1008.2
20 17.09 СВ 3 20 км н/о +15.7 +13.9 89 +15 +15 1013.6 1009.0
21 17.09 СВ 3 20 км н/о +16.2 +13.1 82 +16 +16 1013.5 1008.9
23 17.09 СВ 2 20 км н/о +17.9 +15.2 84 +18 +18 1012.9 1008.4
00 18.09 СВ 1 20 км н/о +20.1 +14.5 70 +23 +23 комфорт 1012.7 1008.2 +15.1

 

Местоположение метеостанции Уракава (Япония): широта 42.17 долгота 142.78 высота над уровнем моря 37 м.

В архиве по умолчанию представлена погода в Уракава за последнюю неделю. Архивные данные за месяц целиком и за предыдущие месяцы, начиная с января 2011 года, Вы можете получить, выбрав интересующий диапазон дат из раскрывающегося списка и нажав кнопку "Ввод!".


*Определитесь, кто Вы:
робот инопланетянин человек

Внимание! Время в таблицах - всемирное. Для получения местного времени необходимо прибавить поправку, которая равна 9 ч.

Смотрите также архив погоды в соседних городах и на ближайших метеорологических станциях:

Погода в Хироо (Япония) (46 км)
Погода в Обихиро (Япония) (91 км)
Погода в Томакомае (Япония) (113 км)
Погода в Ивамидзаве (Япония) (143 км)
Погода в Муроране (Япония) (149 км)
Погода в Саппоро (Япония) (155 км)
Погода в Кусиро (Япония) (159 км)
Погода в Муцу (Япония) (164 км)
Погода в Хакодате (Япония) (172 км)
Погода в Асахикаве (Япония) (181 км)

Пояснения к столбцам:

Ветер - указаны скорость ветра в м/с - средняя за 10 мин, порывы в срок и между сроками (в фигурных скобках) и направление, откуда дует ветер: С - северный, СВ - северо-восточный, В - восточный, ЮВ - юго-восточный, Ю - южный, ЮЗ - юго-западный, З - западный, СЗ - северо-западный.
Видимость - горизонтальная дальность видимости в метрах или километрах. При видимости от 1 до 10 км при отсутствии осадков обычно наблюдается дымка, при ухудшении видимости до 1 км и менее - туман. В сухую погоду видимость может ухудшаться дымом, пылью или мглою.
Явления - указаны атмосферные явления, наблюдавшиеся в срок или в последний час перед сроком; фигурными скобками обозначены явления, наблюдавшиеся между сроками (за 1-3 часа до срока); квадратными скобками обозначены град или гололедные отложения с указанием их диаметра в мм.
Облачность - указаны через наклонную черту общая и нижняя облачность в баллах и высота нижней границы облаков в метрах; квадратными скобками обозначены формы облаков: Ci - перистые, Cs - перисто-слоистые, Cc - перисто-кучевые, Ac - высококучевые, As - высокослоистые, Sc - слоисто-кучевые, Ns - слоисто-дождевые, Cu - кучевые, Cb - кучево-дождевые. Подробнее классификацию облаков см. в Атласе облаков (PDF).
T - Температура воздуха - температура, измеренная на высоте 2 м над землей.
Td - Температура точки росы - температура, при понижении до которой содержащийся в воздухе водяной пар достигнет насыщения.
f - Относительная влажность воздуха - влажноcть воздуха, измеренная на высоте 2 м над землей.
Te - Эффективная температура - температура, которую ощущает одетый по сезону человек в тени. Характеристика душности погоды. При расчете учитывается влияние влажности воздуха и скорости ветра на теплоощущения человека.
Tes - Эффективная температура на солнце - температура, которую ощущает человек, с поправкой на солнечный нагрев. Характеристика знойности погоды. Зависит от высоты солнца над горизонтом, облачности и скорости ветра. Ночью, в пасмурную погоду, а также при ветре 12 м/с и более поправка равна нулю.
P - Атмосферное давление - приведенное к уровню моря атмосферное давление.
Po - Атмосферное давление - измеренное на уровне метеостанции атмосферное давление.
Tmin - Минимальная температура - минимум температуры воздуха на высоте 2 м над землей.
Tmax - Максимальная температура - максимум температуры воздуха на высоте 2 м над землей.
R - Количество осадков - Количество выпавших осадков за период времени, мм. При наведении курсора мыши на число - период времени, за который выпало указанное количество осадков.
R24 - Количество осадков - Количество выпавших осадков за 24 часа, мм.
S - Снежный покров - Высота снежного покрова, см. При наведении курсора мыши на число - состояние снежного покрова и степень покрытия местности в баллах.